Time,TemperatureF,DewpointF,PressureIn,WindDirection,WindDirectionDegrees,WindSpeedMPH,WindSpeedGustMPH,Humidity,HourlyPrecipIn,Conditions,Clouds,dailyrainin,SoftwareType,DateUTC
2013-03-05 00:00:00,30.4,20.4,29.78,WNW,301,0.0,0.0,66,0.00,,,0.00,WeatherCatV1.11B39,2013-03-05 05:00:00,
2013-03-05 00:05:00,30.3,20.3,29.78,WNW,303,0.0,0.0,66,0.00,,,0.00,WeatherCatV1.11B39,2013-03-05 05:05:00,
2013-03-05 00:10:00,30.4,20.4,29.78,North,349,0.0,0.0,66,0.00,,,0.00,WeatherCatV1.11B39,2013-03-05 05:10:00,
2013-03-05 00:15:00,30.4,20.1,29.78,NE,38,0.0,0.0,65,0.00,,,0.00,WeatherCatV1.11B39,2013-03-05 05:15:00,
2013-03-05 00:20:00,30.5,20.5,29.79,North,350,0.0,0.0,66,0.00,,,0.00,WeatherCatV1.11B39,2013-03-05 05:20:00,
2013-03-05 00:25:00,30.4,20.1,29.79,NNE,15,0.0,0.0,65,0.00,,,0.00,WeatherCatV1.11B39,2013-03-05 05:25:00,
2013-03-05 00:30:00,30.4,20.1,29.79,NW,323,0.0,0.0,65,0.00,,,0.00,WeatherCatV1.11B39,2013-03-05 05:30:00,
2013-03-05 00:35:00,30.4,20.1,29.79,NNE,14,0.0,0.0,65,0.00,,,0.00,WeatherCatV1.11B39,2013-03-05 05:35:00,
2013-03-05 00:40:00,30.4,20.1,29.80,North,359,0.0,0.0,65,0.00,,,0.00,WeatherCatV1.11B39,2013-03-05 05:40:00,
2013-03-05 00:45:00,30.2,19.9,29.79,NNW,328,0.0,0.0,65,0.00,,,0.00,WeatherCatV1.11B39,2013-03-05 05:45:00,
2013-03-05 00:50:00,30.2,19.9,29.80,NNW,334,0.0,0.0,65,0.00,,,0.00,WeatherCatV1.11B39,2013-03-05 05:50:00,
2013-03-05 00:55:00,30.1,19.8,29.80,NNE,27,0.0,3.0,65,0.00,,,0.00,WeatherCatV1.11B39,2013-03-05 05:55:00,
2013-03-05 01:00:00,30.1,19.8,29.80,NNW,343,0.0,0.0,65,0.00,,,0.00,WeatherCatV1.11B39,2013-03-05 06:00:00,
2013-03-05 01:05:00,30.1,19.8,29.80,North,1,0.0,0.0,65,0.00,,,0.00,WeatherCatV1.11B39,2013-03-05 06:05:00,
2013-03-05 01:10:00,29.9,19.6,29.80,North,5,0.0,0.0,65,0.00,,,0.00,WeatherCatV1.11B39,2013-03-05 06:10:00,
2013-03-05 01:15:00,30.0,19.7,29.80,NW,324,0.0,0.0,65,0.00,,,0.00,WeatherCatV1.11B39,2013-03-05 06:15:00,
2013-03-05 01:20:00,29.9,19.6,29.81,NW,321,0.0,0.0,65,0.00,,,0.00,WeatherCatV1.11B39,2013-03-05 06:20:00,
2013-03-05 01:25:00,29.8,19.5,29.81,NW,323,0.0,0.0,65,0.00,,,0.00,WeatherCatV1.11B39,2013-03-05 06:25:00,
2013-03-05 01:30:00,29.9,19.6,29.81,NW,320,0.0,0.0,65,0.00,,,0.00,WeatherCatV1.11B39,2013-03-05 06:30:00,
2013-03-05 01:35:00,29.9,19.9,29.81,WNW,288,0.0,5.0,66,0.00,,,0.00,WeatherCatV1.11B39,2013-03-05 06:35:00,
2013-03-05 01:40:00,29.9,19.9,29.81,WNW,292,0.0,0.0,66,0.00,,,0.00,WeatherCatV1.11B39,2013-03-05 06:40:00,
2013-03-05 01:45:00,29.8,19.5,29.81,NNW,338,0.0,0.0,65,0.00,,,0.00,WeatherCatV1.11B39,2013-03-05 06:45:00,
2013-03-05 01:50:00,29.8,19.5,29.81,NW,313,0.0,0.0,65,0.00,,,0.00,WeatherCatV1.11B39,2013-03-05 06:50:00,
2013-03-05 01:55:00,29.6,19.3,29.81,NW,310,0.0,0.0,65,0.00,,,0.00,WeatherCatV1.11B39,2013-03-05 06:55:00,
2013-03-05 02:00:00,29.5,19.2,29.81,NW,311,0.0,0.0,65,0.00,,,0.00,WeatherCatV1.11B39,2013-03-05 07:00:00,
2013-03-05 02:05:00,29.4,19.1,29.82,WNW,299,0.0,0.0,65,0.00,,,0.00,WeatherCatV1.11B39,2013-03-05 07:05:00,
2013-03-05 02:10:00,29.3,19.0,29.81,WNW,298,0.0,0.0,65,0.00,,,0.00,WeatherCatV1.11B39,2013-03-05 07:10:00,
2013-03-05 02:15:00,29.3,19.4,29.82,WNW,298,0.0,0.0,66,0.00,,,0.00,WeatherCatV1.11B39,2013-03-05 07:15:00,
2013-03-05 02:20:00,29.3,19.4,29.82,WNW,298,0.0,0.0,66,0.00,,,0.00,WeatherCatV1.11B39,2013-03-05 07:20:00,
2013-03-05 02:25:00,29.3,19.4,29.82,WNW,299,0.0,0.0,66,0.00,,,0.00,WeatherCatV1.11B39,2013-03-05 07:25:00,
2013-03-05 02:30:00,29.1,19.2,29.82,WNW,299,0.0,0.0,66,0.00,,,0.00,WeatherCatV1.11B39,2013-03-05 07:30:00,
2013-03-05 02:35:00,29.2,19.3,29.82,WNW,302,0.0,0.0,66,0.00,,,0.00,WeatherCatV1.11B39,2013-03-05 07:35:00,
2013-03-05 02:40:00,29.3,19.4,29.82,WNW,284,0.0,3.0,66,0.00,,,0.00,WeatherCatV1.11B39,2013-03-05 07:40:00,
2013-03-05 02:45:00,29.3,19.4,29.82,WNW,284,0.0,0.0,66,0.00,,,0.00,WeatherCatV1.11B39,2013-03-05 07:45:00,
2013-03-05 02:50:00,29.3,19.4,29.83,WNW,286,0.0,0.0,66,0.00,,,0.00,WeatherCatV1.11B39,2013-03-05 07:50:00,
2013-03-05 02:55:00,29.3,19.7,29.83,WNW,288,0.0,0.0,67,0.00,,,0.00,WeatherCatV1.11B39,2013-03-05 07:55:00,
2013-03-05 03:00:00,29.3,19.7,29.83,WNW,297,0.0,0.0,67,0.00,,,0.00,WeatherCatV1.11B39,2013-03-05 08:00:00,
2013-03-05 03:05:00,29.3,19.7,29.83,WNW,293,0.0,4.0,67,0.00,,,0.00,WeatherCatV1.11B39,2013-03-05 08:05:00,
2013-03-05 03:10:00,29.3,20.1,29.83,WNW,292,0.0,0.0,68,0.00,,,0.00,WeatherCatV1.11B39,2013-03-05 08:10:00,
2013-03-05 03:15:00,29.3,19.7,29.83,WNW,290,0.0,0.0,67,0.00,,,0.00,WeatherCatV1.11B39,2013-03-05 08:15:00,
2013-03-05 03:20:00,29.2,20.0,29.83,WNW,290,0.0,0.0,68,0.00,,,0.00,WeatherCatV1.11B39,2013-03-05 08:20:00,
2013-03-05 03:25:00,29.2,19.6,29.83,WNW,290,0.0,1.0,67,0.00,,,0.00,WeatherCatV1.11B39,2013-03-05 08:25:00,
2013-03-05 03:30:00,29.2,20.0,29.84,WNW,290,0.0,0.0,68,0.00,,,0.00,WeatherCatV1.11B39,2013-03-05 08:30:00,
2013-03-05 03:35:00,29.1,19.9,29.84,WNW,290,0.0,0.0,68,0.00,,,0.00,WeatherCatV1.11B39,2013-03-05 08:35:00,
2013-03-05 03:40:00,29.0,19.8,29.84,WNW,290,0.0,0.0,68,0.00,,,0.00,WeatherCatV1.11B39,2013-03-05 08:40:00,
2013-03-05 03:42:00,29.0,19.8,29.84,WNW,290,0.0,0.0,68,0.00,,,0.00,WeatherCatV1.11B39,2013-03-05 08:42:00,
2013-03-05 03:47:00,29.0,19.8,29.84,WNW,290,0.0,0.0,68,0.00,,,0.00,WeatherCatV1.11B39,2013-03-05 08:47:00,
2013-03-05 03:52:00,29.0,19.8,29.85,WNW,290,0.0,0.0,68,0.00,,,0.00,WeatherCatV1.11B39,2013-03-05 08:52:00,
2013-03-05 03:57:00,28.9,19.7,29.85,WNW,290,0.0,0.0,68,0.00,,,0.00,WeatherCatV1.11B39,2013-03-05 08:57:00,
2013-03-05 04:02:00,28.9,20.0,29.85,WNW,290,0.0,0.0,69,0.00,,,0.00,WeatherCatV1.11B39,2013-03-05 09:02:00,
2013-03-05 04:07:00,29.0,20.1,29.86,WNW,290,0.0,0.0,69,0.00,,,0.00,WeatherCatV1.11B39,2013-03-05 09:07:00,
2013-03-05 04:12:00,29.0,20.1,29.86,WNW,290,0.0,0.0,69,0.00,,,0.00,WeatherCatV1.11B39,2013-03-05 09:12:00,
2013-03-05 04:17:00,28.9,20.0,29.86,WNW,290,0.0,0.0,69,0.00,,,0.00,WeatherCatV1.11B39,2013-03-05 09:17:00,
2013-03-05 04:22:00,28.7,19.8,29.86,WNW,290,0.0,0.0,69,0.00,,,0.00,WeatherCatV1.11B39,2013-03-05 09:22:00,
2013-03-05 04:27:00,28.6,19.7,29.86,NNW,332,0.0,0.0,69,0.00,,,0.00,WeatherCatV1.11B39,2013-03-05 09:27:00,
2013-03-05 04:32:00,28.7,19.8,29.87,NNW,334,0.0,0.0,69,0.00,,,0.00,WeatherCatV1.11B39,2013-03-05 09:32:00,
2013-03-05 04:37:00,28.9,20.0,29.86,NNW,329,0.0,0.0,69,0.00,,,0.00,WeatherCatV1.11B39,2013-03-05 09:37:00,
2013-03-05 04:42:00,29.0,20.1,29.87,NNW,330,0.0,0.0,69,0.00,,,0.00,WeatherCatV1.11B39,2013-03-05 09:42:00,
2013-03-05 04:47:00,29.0,20.1,29.87,NNW,332,0.0,0.0,69,0.00,,,0.00,WeatherCatV1.11B39,2013-03-05 09:47:00,
2013-03-05 04:52:00,29.2,20.3,29.87,ESE,115,0.0,0.0,69,0.00,,,0.00,WeatherCatV1.11B39,2013-03-05 09:52:00,
2013-03-05 04:57:00,29.3,20.4,29.87,WSW,251,0.0,1.0,69,0.00,,,0.00,WeatherCatV1.11B39,2013-03-05 09:57:00,
2013-03-05 05:02:00,29.3,20.1,29.88,West,264,0.0,0.0,68,0.00,,,0.00,WeatherCatV1.11B39,2013-03-05 10:02:00,
2013-03-05 05:07:00,29.4,20.5,29.88,West,265,0.0,0.0,69,0.00,,,0.00,WeatherCatV1.11B39,2013-03-05 10:07:00,
2013-03-05 05:12:00,29.4,20.2,29.88,West,265,0.0,0.0,68,0.00,,,0.00,WeatherCatV1.11B39,2013-03-05 10:12:00,
2013-03-05 05:17:00,29.5,20.3,29.88,West,264,0.0,0.0,68,0.00,,,0.00,WeatherCatV1.11B39,2013-03-05 10:17:00,
2013-03-05 05:22:00,29.3,20.4,29.89,West,264,0.0,0.0,69,0.00,,,0.00,WeatherCatV1.11B39,2013-03-05 10:22:00,
2013-03-05 05:27:00,29.2,20.0,29.89,West,265,0.0,0.0,68,0.00,,,0.00,WeatherCatV1.11B39,2013-03-05 10:27:00,
2013-03-05 05:32:00,29.0,20.1,29.89,West,265,0.0,0.0,69,0.00,,,0.00,WeatherCatV1.11B39,2013-03-05 10:32:00,
2013-03-05 05:37:00,29.0,19.8,29.89,West,265,0.0,0.0,68,0.00,,,0.00,WeatherCatV1.11B39,2013-03-05 10:37:00,
2013-03-05 05:42:00,28.9,20.0,29.89,SW,228,0.0,0.0,69,0.00,,,0.00,WeatherCatV1.11B39,2013-03-05 10:42:00,
2013-03-05 05:47:00,29.0,20.1,29.89,SW,234,0.0,0.0,69,0.00,,,0.00,WeatherCatV1.11B39,2013-03-05 10:47:00,
2013-03-05 05:52:00,29.0,20.1,29.90,WNW,282,0.0,0.0,69,0.00,,,0.00,WeatherCatV1.11B39,2013-03-05 10:52:00,
2013-03-05 05:57:00,29.0,20.1,29.90,West,281,0.0,0.0,69,0.00,,,0.00,WeatherCatV1.11B39,2013-03-05 10:57:00,
2013-03-05 06:02:00,29.0,20.1,29.90,West,281,0.0,0.0,69,0.00,,,0.00,WeatherCatV1.11B39,2013-03-05 11:02:00,
2013-03-05 06:07:00,29.0,20.1,29.90,West,281,0.0,0.0,69,0.00,,,0.00,WeatherCatV1.11B39,2013-03-05 11:07:00,
2013-03-05 06:12:00,29.2,20.3,29.90,West,281,0.0,0.0,69,0.00,,,0.00,WeatherCatV1.11B39,2013-03-05 11:12:00,
2013-03-05 06:17:00,29.1,20.2,29.90,West,281,0.0,0.0,69,0.00,,,0.00,WeatherCatV1.11B39,2013-03-05 11:17:00,
2013-03-05 06:22:00,29.3,20.4,29.91,West,281,0.0,0.0,69,0.00,,,0.00,WeatherCatV1.11B39,2013-03-05 11:22:00,
2013-03-05 06:27:00,29.6,20.7,29.91,WNW,293,0.0,0.0,69,0.00,,,0.00,WeatherCatV1.11B39,2013-03-05 11:27:00,
2013-03-05 06:32:00,29.8,20.9,29.90,WNW,293,0.0,0.0,69,0.00,,,0.00,WeatherCatV1.11B39,2013-03-05 11:32:00,
2013-03-05 06:37:00,29.8,20.9,29.91,WNW,292,0.0,0.0,69,0.00,,,0.00,WeatherCatV1.11B39,2013-03-05 11:37:00,
2013-03-05 06:42:00,30.1,21.2,29.91,WNW,292,0.0,0.0,69,0.00,,,0.00,WeatherCatV1.11B39,2013-03-05 11:42:00,
2013-03-05 06:47:00,30.2,21.3,29.92,WNW,295,0.0,0.0,69,0.00,,,0.00,WeatherCatV1.11B39,2013-03-05 11:47:00,
2013-03-05 06:52:00,30.4,21.5,29.92,WNW,295,0.0,0.0,69,0.00,,,0.00,WeatherCatV1.11B39,2013-03-05 11:52:00,
2013-03-05 06:57:00,30.5,21.6,29.92,WNW,294,0.0,0.0,69,0.00,,,0.00,WeatherCatV1.11B39,2013-03-05 11:57:00,
2013-03-05 07:02:00,30.7,21.8,29.92,WNW,294,0.0,0.0,69,0.00,,,0.00,WeatherCatV1.11B39,2013-03-05 12:02:00,
2013-03-05 07:07:00,30.9,21.6,29.93,WNW,294,0.0,0.0,68,0.00,,,0.00,WeatherCatV1.11B39,2013-03-05 12:07:00,
2013-03-05 07:12:00,31.1,22.1,29.92,WNW,293,0.0,0.0,69,0.00,,,0.00,WeatherCatV1.11B39,2013-03-05 12:12:00,
2013-03-05 07:17:00,31.1,21.8,29.93,WNW,292,0.0,0.0,68,0.00,,,0.00,WeatherCatV1.11B39,2013-03-05 12:17:00,
2013-03-05 07:22:00,31.2,21.9,29.93,WNW,292,0.0,0.0,68,0.00,,,0.00,WeatherCatV1.11B39,2013-03-05 12:22:00,
2013-03-05 07:27:00,31.2,21.5,29.93,WNW,289,0.0,1.0,67,0.00,,,0.00,WeatherCatV1.11B39,2013-03-05 12:27:00,
2013-03-05 07:32:00,31.4,21.7,29.93,WNW,288,0.0,2.0,67,0.00,,,0.00,WeatherCatV1.11B39,2013-03-05 12:32:00,
2013-03-05 07:37:00,31.4,21.7,29.93,WNW,286,0.0,0.0,67,0.00,,,0.00,WeatherCatV1.11B39,2013-03-05 12:37:00,
2013-03-05 07:42:00,31.5,21.8,29.94,WNW,286,0.0,1.0,67,0.00,,,0.00,WeatherCatV1.11B39,2013-03-05 12:42:00,
2013-03-05 07:47:00,31.8,22.1,29.94,WNW,286,0.0,0.0,67,0.00,,,0.00,WeatherCatV1.11B39,2013-03-05 12:47:00,
2013-03-05 07:52:00,32.0,21.9,29.94,WNW,289,0.0,1.0,66,0.00,,,0.00,WeatherCatV1.11B39,2013-03-05 12:52:00,
2013-03-05 07:57:00,32.1,22.0,29.94,WNW,285,0.0,0.0,66,0.00,,,0.00,WeatherCatV1.11B39,2013-03-05 12:57:00,
2013-03-05 08:02:00,32.3,22.6,29.94,WNW,285,0.0,0.0,67,0.00,,,0.00,WeatherCatV1.11B39,2013-03-05 13:02:00,
2013-03-05 08:07:00,32.4,22.7,29.95,WNW,285,0.0,0.0,67,0.00,,,0.00,WeatherCatV1.11B39,2013-03-05 13:07:00,
2013-03-05 08:12:00,32.7,22.6,29.95,WNW,285,0.0,0.0,66,0.00,,,0.00,WeatherCatV1.11B39,2013-03-05 13:12:00,
2013-03-05 08:17:00,32.9,22.4,29.95,WNW,285,0.0,0.0,65,0.00,,,0.00,WeatherCatV1.11B39,2013-03-05 13:17:00,
2013-03-05 08:22:00,33.2,22.7,29.95,WNW,286,0.0,0.0,65,0.00,,,0.00,WeatherCatV1.11B39,2013-03-05 13:22:00,
2013-03-05 08:27:00,33.5,23.0,29.95,WNW,286,0.0,0.0,65,0.00,,,0.00,WeatherCatV1.11B39,2013-03-05 13:27:00,
2013-03-05 08:32:00,33.8,22.9,29.96,NE,39,0.0,0.0,64,0.00,,,0.00,WeatherCatV1.11B39,2013-03-05 13:32:00,
2013-03-05 08:37:00,34.1,23.2,29.95,North,359,0.0,0.0,64,0.00,,,0.00,WeatherCatV1.11B39,2013-03-05 13:37:00,
2013-03-05 08:42:00,34.4,23.5,29.96,NNW,340,0.0,0.0,64,0.00,,,0.00,WeatherCatV1.11B39,2013-03-05 13:42:00,
2013-03-05 08:47:00,34.5,22.8,29.96,NNE,12,0.0,0.0,62,0.00,,,0.00,WeatherCatV1.11B39,2013-03-05 13:47:00,
2013-03-05 08:52:00,34.7,23.0,29.96,ENE,57,0.0,0.0,62,0.00,,,0.00,WeatherCatV1.11B39,2013-03-05 13:52:00,
2013-03-05 08:57:00,35.0,23.3,29.96,North,349,0.0,0.0,62,0.00,,,0.00,WeatherCatV1.11B39,2013-03-05 13:57:00,
2013-03-05 09:02:00,35.1,23.0,29.96,North,0,0.0,0.0,61,0.00,,,0.00,WeatherCatV1.11B39,2013-03-05 14:02:00,
2013-03-05 09:07:00,35.3,23.2,29.96,North,0,0.0,0.0,61,0.00,,,0.00,WeatherCatV1.11B39,2013-03-05 14:07:00,
2013-03-05 09:12:00,35.4,23.3,29.96,NE,42,0.0,0.0,61,0.00,,,0.00,WeatherCatV1.11B39,2013-03-05 14:12:00,
2013-03-05 09:17:00,35.7,23.6,29.96,NNW,334,0.0,0.0,61,0.00,,,0.00,WeatherCatV1.11B39,2013-03-05 14:17:00,
2013-03-05 09:22:00,36.0,23.5,29.96,North,3,0.0,0.0,60,0.00,,,0.00,WeatherCatV1.11B39,2013-03-05 14:22:00,
2013-03-05 09:27:00,36.1,23.2,29.96,NNW,339,0.0,0.0,59,0.00,,,0.00,WeatherCatV1.11B39,2013-03-05 14:27:00,
2013-03-05 09:32:00,36.2,23.7,29.96,NNW,342,0.0,0.0,60,0.00,,,0.00,WeatherCatV1.11B39,2013-03-05 14:32:00,
2013-03-05 09:37:00,36.5,23.6,29.96,NNW,331,0.0,0.0,59,0.00,,,0.00,WeatherCatV1.11B39,2013-03-05 14:37:00,
2013-03-05 09:42:00,36.7,23.7,29.97,NE,38,0.0,0.0,59,0.00,,,0.00,WeatherCatV1.11B39,2013-03-05 14:42:00,
2013-03-05 09:47:00,36.7,23.7,29.97,West,273,0.0,0.0,59,0.00,,,0.00,WeatherCatV1.11B39,2013-03-05 14:47:00,
2013-03-05 09:52:00,36.8,23.8,29.97,North,8,0.0,0.0,59,0.00,,,0.00,WeatherCatV1.11B39,2013-03-05 14:52:00,
2013-03-05 09:57:00,37.0,24.0,29.96,NNW,334,0.0,0.0,59,0.00,,,0.00,WeatherCatV1.11B39,2013-03-05 14:57:00,
2013-03-05 10:02:00,37.1,23.7,29.97,North,356,0.0,0.0,58,0.00,,,0.00,WeatherCatV1.11B39,2013-03-05 15:02:00,
2013-03-05 10:07:00,37.3,23.9,29.97,North,359,0.0,0.0,58,0.00,,,0.00,WeatherCatV1.11B39,2013-03-05 15:07:00,
2013-03-05 10:12:00,37.4,24.0,29.96,NNE,17,0.0,0.0,58,0.00,,,0.00,WeatherCatV1.11B39,2013-03-05 15:12:00,
2013-03-05 10:17:00,37.7,24.3,29.96,NE,36,0.0,0.0,58,0.00,,,0.00,WeatherCatV1.11B39,2013-03-05 15:17:00,
2013-03-05 10:22:00,37.8,24.0,29.96,NE,53,0.0,0.0,57,0.00,,,0.00,WeatherCatV1.11B39,2013-03-05 15:22:00,
2013-03-05 10:27:00,38.1,24.2,29.97,NE,40,0.0,1.0,57,0.00,,,0.00,WeatherCatV1.11B39,2013-03-05 15:27:00,
2013-03-05 10:32:00,38.4,24.5,29.97,ENE,68,0.0,4.0,57,0.00,,,0.00,WeatherCatV1.11B39,2013-03-05 15:32:00,
2013-03-05 10:37:00,38.5,24.6,29.97,ENE,67,0.0,0.0,57,0.00,,,0.00,WeatherCatV1.11B39,2013-03-05 15:37:00,
2013-03-05 10:42:00,38.8,24.5,29.97,ENE,67,0.0,0.0,56,0.00,,,0.00,WeatherCatV1.11B39,2013-03-05 15:42:00,
2013-03-05 10:47:00,38.9,24.6,29.96,NNE,33,1.0,5.0,56,0.00,,,0.00,WeatherCatV1.11B39,2013-03-05 15:47:00,
2013-03-05 10:52:00,39.1,25.2,29.97,NE,48,0.0,0.0,57,0.00,,,0.00,WeatherCatV1.11B39,2013-03-05 15:52:00,
2013-03-05 10:57:00,39.2,24.8,29.97,North,352,0.0,0.0,56,0.00,,,0.00,WeatherCatV1.11B39,2013-03-05 15:57:00,
2013-03-05 11:02:00,39.1,23.9,29.97,NE,44,0.0,0.0,54,0.00,,,0.00,WeatherCatV1.11B39,2013-03-05 16:02:00,
2013-03-05 11:07:00,39.2,24.8,29.97,North,6,0.0,0.0,56,0.00,,,0.00,WeatherCatV1.11B39,2013-03-05 16:07:00,
2013-03-05 11:12:00,39.8,25.4,29.97,North,6,0.0,0.0,56,0.00,,,0.00,WeatherCatV1.11B39,2013-03-05 16:12:00,
2013-03-05 11:17:00,40.4,26.0,29.97,NNE,29,0.0,0.0,56,0.00,,,0.00,WeatherCatV1.11B39,2013-03-05 16:17:00,
2013-03-05 11:22:00,40.8,25.5,29.97,NNE,25,0.0,0.0,54,0.00,,,0.00,WeatherCatV1.11B39,2013-03-05 16:22:00,
2013-03-05 11:27:00,40.9,25.1,29.97,NE,39,0.0,0.0,53,0.00,,,0.00,WeatherCatV1.11B39,2013-03-05 16:27:00,
2013-03-05 11:32:00,41.1,25.3,29.96,NNE,23,0.0,0.0,53,0.00,,,0.00,WeatherCatV1.11B39,2013-03-05 16:32:00,
2013-03-05 11:37:00,40.9,25.6,29.97,WSW,241,0.0,0.0,54,0.00,,,0.00,WeatherCatV1.11B39,2013-03-05 16:37:00,
2013-03-05 11:42:00,41.1,25.7,29.97,NE,50,6.0,7.0,54,0.00,,,0.00,WeatherCatV1.11B39,2013-03-05 16:42:00,
2013-03-05 11:47:00,41.2,24.9,29.97,NE,38,0.0,0.0,52,0.00,,,0.00,WeatherCatV1.11B39,2013-03-05 16:47:00,
2013-03-05 11:52:00,41.7,25.8,29.96,ENE,68,0.0,4.0,53,0.00,,,0.00,WeatherCatV1.11B39,2013-03-05 16:52:00,
2013-03-05 11:57:00,41.9,25.6,29.96,ENE,61,0.0,3.0,52,0.00,,,0.00,WeatherCatV1.11B39,2013-03-05 16:57:00,
2013-03-05 12:02:00,41.9,25.6,29.97,NE,46,0.0,0.0,52,0.00,,,0.00,WeatherCatV1.11B39,2013-03-05 17:02:00,
2013-03-05 12:07:00,42.1,25.8,29.97,NE,46,0.0,0.0,52,0.00,,,0.00,WeatherCatV1.11B39,2013-03-05 17:07:00,
2013-03-05 12:12:00,42.1,26.2,29.97,NE,46,0.0,0.0,53,0.00,,,0.00,WeatherCatV1.11B39,2013-03-05 17:12:00,
2013-03-05 12:17:00,42.5,26.1,29.97,NE,42,0.0,0.0,52,0.00,,,0.00,WeatherCatV1.11B39,2013-03-05 17:17:00,
2013-03-05 12:22:00,42.8,26.4,29.97,ENE,63,0.0,2.0,52,0.00,,,0.00,WeatherCatV1.11B39,2013-03-05 17:22:00,
2013-03-05 12:27:00,42.7,25.4,29.97,NE,39,0.0,0.0,50,0.00,,,0.00,WeatherCatV1.11B39,2013-03-05 17:27:00,
2013-03-05 12:32:00,42.2,24.9,29.96,NNE,33,0.0,0.0,50,0.00,,,0.00,WeatherCatV1.11B39,2013-03-05 17:32:00,
2013-03-05 12:37:00,42.2,25.9,29.97,ENE,58,0.0,0.0,52,0.00,,,0.00,WeatherCatV1.11B39,2013-03-05 17:37:00,
2013-03-05 12:42:00,42.5,25.7,29.96,NE,48,0.0,0.0,51,0.00,,,0.00,WeatherCatV1.11B39,2013-03-05 17:42:00,
2013-03-05 12:47:00,42.1,25.3,29.97,ENE,61,0.0,0.0,51,0.00,,,0.00,WeatherCatV1.11B39,2013-03-05 17:47:00,
2013-03-05 12:52:00,42.0,24.7,29.97,ENE,60,0.0,0.0,50,0.00,,,0.00,WeatherCatV1.11B39,2013-03-05 17:52:00,
2013-03-05 12:57:00,42.4,26.0,29.97,NE,53,4.0,6.0,52,0.00,,,0.00,WeatherCatV1.11B39,2013-03-05 17:57:00,
2013-03-05 13:02:00,43.0,26.1,29.97,ENE,63,0.0,0.0,51,0.00,,,0.00,WeatherCatV1.11B39,2013-03-05 18:02:00,
2013-03-05 13:07:00,42.9,26.0,29.97,NE,54,0.0,0.0,51,0.00,,,0.00,WeatherCatV1.11B39,2013-03-05 18:07:00,
2013-03-05 13:12:00,43.2,25.8,29.97,NNE,16,0.0,0.0,50,0.00,,,0.00,WeatherCatV1.11B39,2013-03-05 18:12:00,
2013-03-05 13:17:00,43.1,25.3,29.97,NNW,348,0.0,0.0,49,0.00,,,0.00,WeatherCatV1.11B39,2013-03-05 18:17:00,
2013-03-05 13:22:00,43.1,25.7,29.97,NE,39,0.0,0.0,50,0.00,,,0.00,WeatherCatV1.11B39,2013-03-05 18:22:00,
2013-03-05 13:27:00,42.9,25.6,29.97,NE,39,0.0,0.0,50,0.00,,,0.00,WeatherCatV1.11B39,2013-03-05 18:27:00,
2013-03-05 13:32:00,43.3,25.4,29.97,NE,42,0.0,0.0,49,0.00,,,0.00,WeatherCatV1.11B39,2013-03-05 18:32:00,
2013-03-05 13:37:00,43.8,26.4,29.97,NNE,33,0.0,0.0,50,0.00,,,0.00,WeatherCatV1.11B39,2013-03-05 18:37:00,
2013-03-05 13:42:00,43.8,25.4,29.98,NE,46,0.0,5.0,48,0.00,,,0.00,WeatherCatV1.11B39,2013-03-05 18:42:00,
2013-03-05 13:47:00,43.5,25.6,29.97,NE,38,0.0,0.0,49,0.00,,,0.00,WeatherCatV1.11B39,2013-03-05 18:47:00,
2013-03-05 13:52:00,43.2,25.3,29.98,NE,45,0.0,0.0,49,0.00,,,0.00,WeatherCatV1.11B39,2013-03-05 18:52:00,
2013-03-05 13:57:00,43.1,25.3,29.98,NNE,26,0.0,0.0,49,0.00,,,0.00,WeatherCatV1.11B39,2013-03-05 18:57:00,
2013-03-05 14:02:00,42.9,25.6,29.98,NE,56,0.0,0.0,50,0.00,,,0.00,WeatherCatV1.11B39,2013-03-05 19:02:00,
2013-03-05 14:07:00,42.8,25.0,29.98,NE,50,0.0,0.0,49,0.00,,,0.00,WeatherCatV1.11B39,2013-03-05 19:07:00,
2013-03-05 14:12:00,42.7,24.9,29.98,ENE,65,0.0,1.0,49,0.00,,,0.00,WeatherCatV1.11B39,2013-03-05 19:12:00,
2013-03-05 14:17:00,42.5,24.7,29.99,NE,49,0.0,0.0,49,0.00,,,0.00,WeatherCatV1.11B39,2013-03-05 19:17:00,
2013-03-05 14:22:00,42.5,25.2,29.98,NE,55,0.0,2.0,50,0.00,,,0.00,WeatherCatV1.11B39,2013-03-05 19:22:00,
2013-03-05 14:27:00,42.4,25.1,29.99,NE,54,0.0,0.0,50,0.00,,,0.00,WeatherCatV1.11B39,2013-03-05 19:27:00,
2013-03-05 14:32:00,42.5,24.7,29.98,NE,51,0.0,0.0,49,0.00,,,0.00,WeatherCatV1.11B39,2013-03-05 19:32:00,
2013-03-05 14:37:00,42.8,25.0,29.99,NE,51,0.0,0.0,49,0.00,,,0.00,WeatherCatV1.11B39,2013-03-05 19:37:00,
2013-03-05 14:42:00,42.8,25.0,29.99,NE,52,0.0,0.0,49,0.00,,,0.00,WeatherCatV1.11B39,2013-03-05 19:42:00,
2013-03-05 14:47:00,42.8,24.5,29.99,NE,53,0.0,0.0,48,0.00,,,0.00,WeatherCatV1.11B39,2013-03-05 19:47:00,
2013-03-05 14:52:00,42.9,25.1,29.99,ENE,58,0.0,0.0,49,0.00,,,0.00,WeatherCatV1.11B39,2013-03-05 19:52:00,
2013-03-05 14:57:00,42.9,25.1,29.99,NE,54,0.0,0.0,49,0.00,,,0.00,WeatherCatV1.11B39,2013-03-05 19:57:00,
2013-03-05 15:02:00,42.9,24.6,29.99,NE,54,0.0,0.0,48,0.00,,,0.00,WeatherCatV1.11B39,2013-03-05 20:02:00,
2013-03-05 15:07:00,42.9,25.1,29.99,NE,39,0.0,0.0,49,0.00,,,0.00,WeatherCatV1.11B39,2013-03-05 20:07:00,
2013-03-05 15:12:00,42.9,24.1,29.99,ENE,58,0.0,1.0,47,0.00,,,0.00,WeatherCatV1.11B39,2013-03-05 20:12:00,
2013-03-05 15:17:00,42.6,24.8,30.00,NE,38,0.0,0.0,49,0.00,,,0.00,WeatherCatV1.11B39,2013-03-05 20:17:00,
2013-03-05 15:22:00,42.8,24.5,30.00,NNE,30,0.0,0.0,48,0.00,,,0.00,WeatherCatV1.11B39,2013-03-05 20:22:00,
2013-03-05 15:27:00,42.9,24.1,30.00,ENE,63,0.0,0.0,47,0.00,,,0.00,WeatherCatV1.11B39,2013-03-05 20:27:00,
2013-03-05 15:32:00,42.9,25.1,30.00,ENE,61,0.0,0.0,49,0.00,,,0.00,WeatherCatV1.11B39,2013-03-05 20:32:00,
2013-03-05 15:37:00,43.0,24.7,30.00,NE,53,0.0,0.0,48,0.00,,,0.00,WeatherCatV1.11B39,2013-03-05 20:37:00,
2013-03-05 15:42:00,42.8,24.5,30.01,NE,56,0.0,0.0,48,0.00,,,0.00,WeatherCatV1.11B39,2013-03-05 20:42:00,
2013-03-05 15:47:00,42.8,24.5,30.01,ENE,58,0.0,0.0,48,0.00,,,0.00,WeatherCatV1.11B39,2013-03-05 20:47:00,
2013-03-05 15:52:00,42.8,25.0,30.01,NE,50,0.0,0.0,49,0.00,,,0.00,WeatherCatV1.11B39,2013-03-05 20:52:00,
2013-03-05 15:57:00,42.8,24.5,30.01,NE,51,0.0,0.0,48,0.00,,,0.00,WeatherCatV1.11B39,2013-03-05 20:57:00,
2013-03-05 16:02:00,42.6,24.8,30.01,NE,48,0.0,0.0,49,0.00,,,0.00,WeatherCatV1.11B39,2013-03-05 21:02:00,
2013-03-05 16:07:00,42.7,24.9,30.01,NE,47,0.0,0.0,49,0.00,,,0.00,WeatherCatV1.11B39,2013-03-05 21:07:00,
2013-03-05 16:12:00,42.7,24.9,30.02,NE,48,0.0,0.0,49,0.00,,,0.00,WeatherCatV1.11B39,2013-03-05 21:12:00,
2013-03-05 16:17:00,42.5,25.2,30.02,NE,50,0.0,0.0,50,0.00,,,0.00,WeatherCatV1.11B39,2013-03-05 21:17:00,
2013-03-05 16:22:00,42.5,25.2,30.02,NE,50,0.0,0.0,50,0.00,,,0.00,WeatherCatV1.11B39,2013-03-05 21:22:00,
2013-03-05 16:27:00,42.4,24.6,30.02,NE,54,0.0,0.0,49,0.00,,,0.00,WeatherCatV1.11B39,2013-03-05 21:27:00,
2013-03-05 16:32:00,42.3,25.0,30.02,NE,50,0.0,0.0,50,0.00,,,0.00,WeatherCatV1.11B39,2013-03-05 21:32:00,
2013-03-05 16:37:00,42.4,25.1,30.02,NE,47,0.0,0.0,50,0.00,,,0.00,WeatherCatV1.11B39,2013-03-05 21:37:00,
2013-03-05 16:42:00,42.2,24.9,30.02,NE,48,0.0,0.0,50,0.00,,,0.00,WeatherCatV1.11B39,2013-03-05 21:42:00,
2013-03-05 16:47:00,42.2,24.9,30.02,NE,48,0.0,0.0,50,0.00,,,0.00,WeatherCatV1.11B39,2013-03-05 21:47:00,
2013-03-05 16:52:00,42.1,24.8,30.02,NE,48,0.0,0.0,50,0.00,,,0.00,WeatherCatV1.11B39,2013-03-05 21:52:00,
2013-03-05 16:57:00,42.1,24.8,30.02,NE,49,0.0,0.0,50,0.00,,,0.00,WeatherCatV1.11B39,2013-03-05 21:57:00,
2013-03-05 17:02:00,42.1,25.8,30.03,NE,49,0.0,0.0,52,0.00,,,0.00,WeatherCatV1.11B39,2013-03-05 22:02:00,
2013-03-05 17:07:00,42.1,25.3,30.02,NE,47,0.0,0.0,51,0.00,,,0.00,WeatherCatV1.11B39,2013-03-05 22:07:00,
2013-03-05 17:13:00,42.1,25.8,30.03,NE,47,0.0,0.0,52,0.00,,,0.00,WeatherCatV1.11B39,2013-03-05 22:13:00,
2013-03-05 17:18:00,41.9,25.6,30.03,NE,47,0.0,0.0,52,0.00,,,0.00,WeatherCatV1.11B39,2013-03-05 22:18:00,
2013-03-05 17:23:00,41.9,25.6,30.03,NE,47,0.0,0.0,52,0.00,,,0.00,WeatherCatV1.11B39,2013-03-05 22:23:00,
2013-03-05 17:28:00,41.8,25.5,30.03,NE,47,0.0,0.0,52,0.00,,,0.00,WeatherCatV1.11B39,2013-03-05 22:28:00,
2013-03-05 17:33:00,41.8,25.5,30.03,NE,46,0.0,0.0,52,0.00,,,0.00,WeatherCatV1.11B39,2013-03-05 22:33:00,
2013-03-05 17:38:00,41.7,25.8,30.03,NE,46,0.0,0.0,53,0.00,,,0.00,WeatherCatV1.11B39,2013-03-05 22:38:00,
2013-03-05 17:43:00,41.5,25.7,30.03,NE,46,0.0,0.0,53,0.00,,,0.00,WeatherCatV1.11B39,2013-03-05 22:43:00,
2013-03-05 17:48:00,41.1,25.3,30.03,NE,44,0.0,0.0,53,0.00,,,0.00,WeatherCatV1.11B39,2013-03-05 22:48:00,
2013-03-05 17:53:00,40.8,25.9,30.03,NE,44,0.0,0.0,55,0.00,,,0.00,WeatherCatV1.11B39,2013-03-05 22:53:00,
2013-03-05 17:58:00,40.4,25.1,30.03,NE,44,0.0,0.0,54,0.00,,,0.00,WeatherCatV1.11B39,2013-03-05 22:58:00,
2013-03-05 18:03:00,40.1,25.2,30.03,NE,44,0.0,0.0,55,0.00,,,0.00,WeatherCatV1.11B39,2013-03-05 23:03:00,
2013-03-05 18:08:00,39.8,25.0,30.04,NE,44,0.0,0.0,55,0.00,,,0.00,WeatherCatV1.11B39,2013-03-05 23:08:00,
2013-03-05 18:13:00,39.6,25.2,30.04,NE,44,0.0,0.0,56,0.00,,,0.00,WeatherCatV1.11B39,2013-03-05 23:13:00,
2013-03-05 18:18:00,39.4,25.4,30.03,NE,44,0.0,0.0,57,0.00,,,0.00,WeatherCatV1.11B39,2013-03-05 23:18:00,
2013-03-05 18:23:00,39.1,25.6,30.04,NE,44,0.0,0.0,58,0.00,,,0.00,WeatherCatV1.11B39,2013-03-05 23:23:00,
2013-03-05 18:28:00,38.5,25.0,30.04,NE,44,0.0,0.0,58,0.00,,,0.00,WeatherCatV1.11B39,2013-03-05 23:28:00,
2013-03-05 18:33:00,37.9,25.3,30.05,NE,44,0.0,0.0,60,0.00,,,0.00,WeatherCatV1.11B39,2013-03-05 23:33:00,
2013-03-05 18:38:00,37.5,24.9,30.04,NE,44,0.0,0.0,60,0.00,,,0.00,WeatherCatV1.11B39,2013-03-05 23:38:00,
2013-03-05 18:43:00,37.0,24.8,30.04,NE,44,0.0,0.0,61,0.00,,,0.00,WeatherCatV1.11B39,2013-03-05 23:43:00,
2013-03-05 18:48:00,36.7,24.9,30.05,NE,44,0.0,0.0,62,0.00,,,0.00,WeatherCatV1.11B39,2013-03-05 23:48:00,
2013-03-05 18:53:00,36.4,25.0,30.05,NE,44,0.0,0.0,63,0.00,,,0.00,WeatherCatV1.11B39,2013-03-05 23:53:00,
2013-03-05 18:58:00,36.1,24.7,30.06,NE,44,0.0,0.0,63,0.00,,,0.00,WeatherCatV1.11B39,2013-03-05 23:58:00,
2013-03-05 19:03:00,35.8,24.8,30.06,NE,44,0.0,0.0,64,0.00,,,0.00,WeatherCatV1.11B39,2013-03-06 00:03:00,
2013-03-05 19:08:00,35.5,24.9,30.06,NE,44,0.0,0.0,65,0.00,,,0.00,WeatherCatV1.11B39,2013-03-06 00:08:00,
2013-03-05 19:13:00,35.4,25.2,30.06,NE,44,0.0,0.0,66,0.00,,,0.00,WeatherCatV1.11B39,2013-03-06 00:13:00,
2013-03-05 19:18:00,35.1,24.9,30.06,NE,44,0.0,0.0,66,0.00,,,0.00,WeatherCatV1.11B39,2013-03-06 00:18:00,
2013-03-05 19:23:00,34.8,24.6,30.06,NE,44,0.0,0.0,66,0.00,,,0.00,WeatherCatV1.11B39,2013-03-06 00:23:00,
2013-03-05 19:28:00,34.7,24.5,30.07,NE,44,0.0,0.0,66,0.00,,,0.00,WeatherCatV1.11B39,2013-03-06 00:28:00,
2013-03-05 19:33:00,34.5,24.7,30.06,NE,44,0.0,0.0,67,0.00,,,0.00,WeatherCatV1.11B39,2013-03-06 00:33:00,
2013-03-05 19:38:00,34.5,24.7,30.06,NE,44,0.0,0.0,67,0.00,,,0.00,WeatherCatV1.11B39,2013-03-06 00:38:00,
2013-03-05 19:43:00,34.5,25.0,30.07,NE,44,0.0,0.0,68,0.00,,,0.00,WeatherCatV1.11B39,2013-03-06 00:43:00,
2013-03-05 19:48:00,34.5,25.0,30.07,NE,44,0.0,0.0,68,0.00,,,0.00,WeatherCatV1.11B39,2013-03-06 00:48:00,
2013-03-05 19:53:00,34.5,25.0,30.07,NE,44,0.0,0.0,68,0.00,,,0.00,WeatherCatV1.11B39,2013-03-06 00:53:00,
2013-03-05 19:58:00,34.4,25.0,30.07,NE,44,0.0,0.0,68,0.00,,,0.00,WeatherCatV1.11B39,2013-03-06 00:58:00,
2013-03-05 20:03:00,34.2,24.8,30.07,NE,44,0.0,0.0,68,0.00,,,0.00,WeatherCatV1.11B39,2013-03-06 01:03:00,
2013-03-05 20:08:00,33.9,24.8,30.07,NE,44,0.0,0.0,69,0.00,,,0.00,WeatherCatV1.11B39,2013-03-06 01:08:00,
2013-03-05 20:13:00,33.8,25.1,30.07,NE,44,0.0,0.0,70,0.00,,,0.00,WeatherCatV1.11B39,2013-03-06 01:13:00,
2013-03-05 20:18:00,33.7,25.0,30.07,NE,44,0.0,0.0,70,0.00,,,0.00,WeatherCatV1.11B39,2013-03-06 01:18:00,
2013-03-05 20:23:00,33.5,24.8,30.07,NE,44,0.0,0.0,70,0.00,,,0.00,WeatherCatV1.11B39,2013-03-06 01:23:00,
2013-03-05 20:28:00,33.5,25.1,30.07,NE,44,0.0,0.0,71,0.00,,,0.00,WeatherCatV1.11B39,2013-03-06 01:28:00,
2013-03-05 20:33:00,33.3,24.6,30.07,NE,44,0.0,0.0,70,0.00,,,0.00,WeatherCatV1.11B39,2013-03-06 01:33:00,
2013-03-05 20:38:00,33.4,25.0,30.07,NE,44,0.0,0.0,71,0.00,,,0.00,WeatherCatV1.11B39,2013-03-06 01:38:00,
2013-03-05 20:43:00,33.1,24.7,30.06,NE,44,0.0,0.0,71,0.00,,,0.00,WeatherCatV1.11B39,2013-03-06 01:43:00,
2013-03-05 20:48:00,33.1,25.1,30.06,NE,44,0.0,0.0,72,0.00,,,0.00,WeatherCatV1.11B39,2013-03-06 01:48:00,
2013-03-05 20:53:00,32.9,24.9,30.06,NE,44,0.0,0.0,72,0.00,,,0.00,WeatherCatV1.11B39,2013-03-06 01:53:00,
2013-03-05 20:58:00,32.9,24.9,30.06,NE,44,0.0,0.0,72,0.00,,,0.00,WeatherCatV1.11B39,2013-03-06 01:58:00,
2013-03-05 21:03:00,32.9,25.2,30.06,NE,43,0.0,0.0,73,0.00,,,0.00,WeatherCatV1.11B39,2013-03-06 02:03:00,
2013-03-05 21:08:00,32.5,24.8,30.07,NE,43,0.0,0.0,73,0.00,,,0.00,WeatherCatV1.11B39,2013-03-06 02:08:00,
2013-03-05 21:13:00,32.4,24.7,30.06,NE,43,0.0,0.0,73,0.00,,,0.00,WeatherCatV1.11B39,2013-03-06 02:13:00,
2013-03-05 21:18:00,32.3,25.0,30.07,NE,43,0.0,0.0,74,0.00,,,0.00,WeatherCatV1.11B39,2013-03-06 02:18:00,
2013-03-05 21:23:00,32.1,24.8,30.07,NE,43,0.0,0.0,74,0.00,,,0.00,WeatherCatV1.11B39,2013-03-06 02:23:00,
2013-03-05 21:28:00,32.1,25.1,30.06,NE,43,0.0,0.0,75,0.00,,,0.00,WeatherCatV1.11B39,2013-03-06 02:28:00,
2013-03-05 21:33:00,32.1,25.1,30.07,NE,43,0.0,0.0,75,0.00,,,0.00,WeatherCatV1.11B39,2013-03-06 02:33:00,
2013-03-05 21:38:00,32.3,25.3,30.07,NE,43,0.0,0.0,75,0.00,,,0.00,WeatherCatV1.11B39,2013-03-06 02:38:00,
2013-03-05 21:43:00,32.4,25.4,30.07,NE,43,0.0,0.0,75,0.00,,,0.00,WeatherCatV1.11B39,2013-03-06 02:43:00,
2013-03-05 21:48:00,32.4,25.1,30.07,NE,43,0.0,0.0,74,0.00,,,0.00,WeatherCatV1.11B39,2013-03-06 02:48:00,
2013-03-05 21:53:00,32.4,25.7,30.06,NE,43,0.0,0.0,76,0.00,,,0.00,WeatherCatV1.11B39,2013-03-06 02:53:00,
2013-03-05 21:58:00,32.4,25.7,30.07,NE,44,0.0,0.0,76,0.00,,,0.00,WeatherCatV1.11B39,2013-03-06 02:58:00,
2013-03-05 22:03:00,32.4,26.0,30.07,NE,43,0.0,0.0,77,0.00,,,0.00,WeatherCatV1.11B39,2013-03-06 03:03:00,
2013-03-05 22:08:00,32.4,25.7,30.07,NE,43,0.0,0.0,76,0.00,,,0.00,WeatherCatV1.11B39,2013-03-06 03:08:00,
2013-03-05 22:13:00,32.6,25.9,30.07,NE,43,0.0,0.0,76,0.00,,,0.00,WeatherCatV1.11B39,2013-03-06 03:13:00,
2013-03-05 22:18:00,32.6,25.9,30.07,NE,43,0.0,0.0,76,0.00,,,0.00,WeatherCatV1.11B39,2013-03-06 03:18:00,
2013-03-05 22:23:00,32.7,26.3,30.08,NE,43,0.0,0.0,77,0.00,,,0.00,WeatherCatV1.11B39,2013-03-06 03:23:00,
2013-03-05 22:28:00,32.7,26.3,30.08,NE,43,0.0,0.0,77,0.00,,,0.00,WeatherCatV1.11B39,2013-03-06 03:28:00,
2013-03-05 22:33:00,32.7,26.3,30.08,NE,43,0.0,0.0,77,0.00,,,0.00,WeatherCatV1.11B39,2013-03-06 03:33:00,
2013-03-05 22:38:00,32.9,26.5,30.08,NE,43,0.0,0.0,77,0.00,,,0.00,WeatherCatV1.11B39,2013-03-06 03:38:00,
2013-03-05 22:43:00,32.7,26.6,30.08,NE,43,0.0,0.0,78,0.00,,,0.00,WeatherCatV1.11B39,2013-03-06 03:43:00,
2013-03-05 22:48:00,32.7,26.6,30.08,NE,43,0.0,0.0,78,0.00,,,0.00,WeatherCatV1.11B39,2013-03-06 03:48:00,
2013-03-05 22:53:00,32.7,26.3,30.09,NE,43,0.0,0.0,77,0.00,,,0.00,WeatherCatV1.11B39,2013-03-06 03:53:00,
2013-03-05 22:58:00,32.7,26.6,30.09,NE,43,0.0,0.0,78,0.00,,,0.00,WeatherCatV1.11B39,2013-03-06 03:58:00,
2013-03-05 23:03:00,32.7,26.6,30.09,NE,43,0.0,0.0,78,0.00,,,0.00,WeatherCatV1.11B39,2013-03-06 04:03:00,
2013-03-05 23:08:00,32.9,26.8,30.09,NE,43,0.0,0.0,78,0.00,,,0.00,WeatherCatV1.11B39,2013-03-06 04:08:00,
2013-03-05 23:13:00,33.2,27.1,30.09,NE,43,0.0,0.0,78,0.00,,,0.00,WeatherCatV1.11B39,2013-03-06 04:13:00,
2013-03-05 23:18:00,33.4,27.3,30.09,NE,43,0.0,0.0,78,0.00,,,0.00,WeatherCatV1.11B39,2013-03-06 04:18:00,
2013-03-05 23:23:00,33.3,27.2,30.09,NE,43,0.0,0.0,78,0.00,,,0.00,WeatherCatV1.11B39,2013-03-06 04:23:00,
2013-03-05 23:28:00,33.4,27.3,30.09,NE,43,0.0,0.0,78,0.00,,,0.00,WeatherCatV1.11B39,2013-03-06 04:28:00,
2013-03-05 23:33:00,33.8,28.0,30.09,NE,43,0.0,0.0,79,0.00,,,0.00,WeatherCatV1.11B39,2013-03-06 04:33:00,
2013-03-05 23:38:00,34.5,28.7,30.08,NE,44,0.0,0.0,79,0.00,,,0.00,WeatherCatV1.11B39,2013-03-06 04:38:00,
2013-03-05 23:43:00,35.1,29.3,30.09,NE,52,0.0,0.0,79,0.00,,,0.00,WeatherCatV1.11B39,2013-03-06 04:43:00,
2013-03-05 23:48:00,35.3,29.5,30.08,NE,51,0.0,0.0,79,0.00,,,0.00,WeatherCatV1.11B39,2013-03-06 04:48:00,
2013-03-05 23:53:00,35.2,29.4,30.08,NE,51,0.0,0.0,79,0.00,,,0.00,WeatherCatV1.11B39,2013-03-06 04:53:00,
2013-03-05 23:58:00,35.1,29.3,30.08,NE,51,0.0,0.0,79,0.00,,,0.01,WeatherCatV1.11B39,2013-03-06 04:58:00,